This is the latest recevied weather packets stored in our database for station/object AD5L. If no packets are shown the sender has not sent any weather packets the latest 10 day(s).
| Time | Temp. | Humidity | Pressure | Rain* | Wind** | Luminosity | Snow |
|---|---|---|---|---|---|---|---|
| 1777749214 | 22.22° C | 55% | 1021.5 hPa | 0 mm | - | - | - |
| 1777748604 | 22.22° C | 55% | 1021.5 hPa | 0 mm | - | - | - |
| 1777748014 | 21.67° C | 53% | 1021.6 hPa | 0 mm | - | - | - |
| 1777747426 | 21.11° C | 54% | 1021.6 hPa | 0 mm | - | - | - |
| 1777746817 | 21.11° C | 58% | 1021.7 hPa | 0 mm | - | - | - |
| 1777746224 | 21.11° C | 52% | 1022 hPa | 0 mm | - | - | - |
| 1777745025 | 21.67° C | 60% | 1022.4 hPa | 0 mm | - | - | - |
| 1777744407 | 20.56° C | 59% | 1022.6 hPa | 0 mm | - | - | - |
| 1777743818 | 20.56° C | 64% | 1022.8 hPa | 0 mm | - | - | - |
| 1777743209 | 20.56° C | 67% | 1023 hPa | 0 mm | - | - | - |
| 1777742619 | 20° C | 68% | 1023.2 hPa | 0 mm | - | - | - |
| 1777742010 | 20° C | 66% | 1023.2 hPa | 0 mm | - | - | - |
| 1777741402 | 20° C | 68% | 1023.3 hPa | 0 mm | - | - | - |
| 1777740811 | 19.44° C | 69% | 1023.3 hPa | 0 mm | - | - | - |
| 1777740203 | 19.44° C | 69% | 1023.3 hPa | 0 mm | - | - | - |
| 1777739614 | 19.44° C | 68% | 1023.4 hPa | 0 mm | - | - | - |
| 1777739005 | 18.89° C | 66% | 1023.4 hPa | 0 mm | - | - | - |
| 1777738415 | 18.33° C | 68% | 1023.6 hPa | 0 mm | - | - | - |
| 1777737805 | 18.89° C | 67% | 1023.5 hPa | 0 mm | - | - | - |
| 1777737216 | 17.78° C | 66% | 1023.5 hPa | 0 mm | - | - | - |
| 1777736617 | 18.33° C | 68% | 1023.4 hPa | 0 mm | - | - | - |
| 1777736007 | 17.22° C | 70% | 1023.3 hPa | 0 mm | - | - | - |
| 1777735419 | 17.22° C | 69% | 1023.5 hPa | 0 mm | - | - | - |
| 1777734810 | 17.22° C | 74% | 1023.5 hPa | 0 mm | - | - | - |
| 1777734221 | 17.22° C | 73% | 1023.5 hPa | 0 mm | - | - | - |
* Rain latest hour (hover to see other rain measurements)
** Current wind speed in m/s (hover to see current wind gust speed)